| time (UTC) | temp F | wind direction | speed MPH | gust MPH | rain 1hr in | rain 24hr in | rain mn in | humidity % | barometer mb |
| 20260508043003 | 44 | 210 | 1.0 | 1.0 | 0.00 | 0.22 | 0.00 | 96 | 1017.6 |
| 20260508042003 | 44 | 225 | 0.0 | 0.0 | 0.00 | 0.22 | 0.00 | 96 | 1017.6 |
| 20260508041504 | 44 | 233 | 0.0 | 0.0 | 0.00 | 0.22 | 0.00 | 96 | 1017.6 |
| 20260508041004 | 44 | 229 | 0.0 | 0.0 | 0.00 | 0.22 | 0.00 | 96 | 1017.6 |
| 20260508040504 | 45 | 227 | 0.0 | 0.0 | 0.00 | 0.22 | 0.00 | 96 | 1017.6 |
| 20260508040004 | 45 | 218 | 0.0 | 0.0 | 0.00 | 0.22 | 0.00 | 95 | 1017.6 |
| 20260508035503 | 45 | 208 | 0.0 | 1.0 | 0.00 | 0.22 | 0.00 | 95 | 1017.6 |
| 20260508035004 | 45 | 223 | 0.0 | 1.0 | 0.00 | 0.22 | 0.00 | 95 | 1017.6 |
| 20260508034503 | 44 | 211 | 0.0 | 0.0 | 0.00 | 0.22 | 0.00 | 95 | 1017.5 |
| 20260508034004 | 44 | 246 | 0.0 | 0.0 | 0.00 | 0.22 | 0.00 | 95 | 1017.6 |
| 20260508033504 | 44 | 246 | 0.0 | 0.0 | 0.00 | 0.22 | 0.00 | 95 | 1017.5 |
| 20260508033004 | 45 | 246 | 0.0 | 0.0 | 0.00 | 0.22 | 0.00 | 95 | 1017.6 |
| 20260508032503 | 45 | 249 | 0.0 | 0.0 | 0.00 | 0.22 | 0.00 | 95 | 1017.6 |
| 20260508032004 | 45 | 246 | 0.0 | 0.0 | 0.00 | 0.22 | 0.00 | 95 | 1017.3 |
| 20260508031003 | 45 | 246 | 0.0 | 0.0 | 0.00 | 0.22 | 0.00 | 95 | 1017.6 |
| 20260508030503 | 45 | 247 | 0.0 | 0.0 | 0.00 | 0.22 | 0.00 | 95 | 1017.4 |
| 20260508030004 | 45 | 244 | 0.0 | 0.0 | 0.00 | 0.22 | 0.00 | 95 | 1017.5 |
| 20260508025504 | 45 | 239 | 0.0 | 0.0 | 0.00 | 0.22 | 0.00 | 95 | 1017.3 |
| 20260508024503 | 45 | 243 | 0.0 | 0.0 | 0.00 | 0.22 | 0.00 | 94 | 1017.6 |
| 20260508024003 | 45 | 244 | 0.0 | 0.0 | 0.00 | 0.22 | 0.00 | 94 | 1017.4 |
| 20260508023503 | 46 | 243 | 0.0 | 0.0 | 0.00 | 0.22 | 0.00 | 94 | 1017.5 |
| 20260508023003 | 46 | 239 | 0.0 | 0.0 | 0.00 | 0.22 | 0.00 | 94 | 1017.2 |
| 20260508022504 | 45 | 238 | 0.0 | 0.0 | 0.00 | 0.22 | 0.00 | 94 | 1017.3 |
| 20260508022004 | 46 | 239 | 0.0 | 0.0 | 0.00 | 0.22 | 0.00 | 94 | 1017.2 |
| 20260508021503 | 46 | 240 | 0.0 | 0.0 | 0.00 | 0.22 | 0.00 | 94 | 1017.0 |
| 20260508021004 | 46 | 222 | 0.0 | 0.0 | 0.00 | 0.22 | 0.00 | 94 | 1017.3 |
| 20260508020503 | 46 | 225 | 0.0 | 0.0 | 0.00 | 0.22 | 0.00 | 94 | 1016.9 |
| 20260508020003 | 45 | 237 | 0.0 | 0.0 | 0.00 | 0.22 | 0.00 | 94 | 1017.0 |
| 20260508015503 | 46 | 238 | 0.0 | 0.0 | 0.00 | 0.22 | 0.00 | 94 | 1016.9 |
| 20260508015005 | 46 | 238 | 0.0 | 0.0 | 0.00 | 0.22 | 0.00 | 94 | 1016.9 |
| 20260508014504 | 46 | 237 | 0.0 | 0.0 | 0.00 | 0.22 | 0.00 | 94 | 1017.2 |
| 20260508014004 | 46 | 237 | 0.0 | 0.0 | 0.00 | 0.22 | 0.00 | 94 | 1016.9 |
| 20260508013504 | 46 | 237 | 0.0 | 0.0 | 0.00 | 0.22 | 0.00 | 94 | 1016.9 |
| 20260508012503 | 46 | 237 | 0.0 | 0.0 | 0.00 | 0.22 | 0.00 | 94 | 1016.9 |
| 20260508012004 | 46 | 236 | 0.0 | 0.0 | 0.00 | 0.22 | 0.00 | 94 | 1016.9 |
| 20260508011504 | 46 | 237 | 0.0 | 0.0 | 0.00 | 0.22 | 0.00 | 93 | 1016.9 |
| 20260508011004 | 46 | 236 | 0.0 | 0.0 | 0.00 | 0.22 | 0.00 | 93 | 1016.9 |
| 20260508010504 | 46 | 233 | 0.0 | 0.0 | 0.00 | 0.22 | 0.00 | 93 | 1016.9 |
| 20260508010004 | 46 | 233 | 0.0 | 0.0 | 0.00 | 0.22 | 0.00 | 93 | 1016.9 |
| 20260508005504 | 47 | 233 | 0.0 | 0.0 | 0.00 | 0.22 | 0.00 | 93 | 1016.9 |
| 20260508004504 | 47 | 233 | 0.0 | 0.0 | 0.00 | 0.22 | 0.00 | 93 | 1016.9 |
| 20260508004004 | 47 | 233 | 0.0 | 0.0 | 0.00 | 0.22 | 0.00 | 93 | 1016.9 |
| 20260508003504 | 46 | 237 | 0.0 | 0.0 | 0.00 | 0.22 | 0.00 | 93 | 1016.9 |
| 20260508003003 | 46 | 232 | 0.0 | 0.0 | 0.00 | 0.22 | 0.00 | 93 | 1016.9 |
| 20260508002504 | 47 | 230 | 0.0 | 1.0 | 0.00 | 0.22 | 0.00 | 92 | 1016.9 |
| 20260508002004 | 47 | 221 | 0.0 | 1.0 | 0.00 | 0.22 | 0.00 | 92 | 1016.9 |
| 20260508001004 | 47 | 229 | 0.0 | 0.0 | 0.00 | 0.22 | 0.00 | 92 | 1016.9 |
| 20260508000504 | 47 | 233 | 0.0 | 0.0 | 0.00 | 0.22 | 0.00 | 92 | 1016.9 |
| 20260508000004 | 47 | 233 | 0.0 | 0.0 | 0.00 | 0.22 | 0.00 | 92 | 1016.9 |
| 20260507235503 | 47 | 255 | 0.0 | 0.0 | 0.00 | 0.22 | 0.00 | 91 | 1016.9 |
| 20260507235004 | 46 | 257 | 0.0 | 0.0 | 0.00 | 0.22 | 0.00 | 92 | 1016.9 |
| 20260507234504 | 46 | 259 | 0.0 | 0.0 | 0.00 | 0.22 | 0.00 | 92 | 1016.9 |
| 20260507234004 | 47 | 257 | 0.0 | 0.0 | 0.00 | 0.22 | 0.00 | 92 | 1016.6 |
| 20260507233505 | 47 | 256 | 0.0 | 0.0 | 0.00 | 0.22 | 0.00 | 92 | 1016.9 |
| 20260507233003 | 47 | 261 | 0.0 | 1.0 | 0.00 | 0.22 | 0.00 | 92 | 1016.7 |
| 20260507232003 | 47 | 256 | 0.0 | 1.0 | 0.00 | 0.22 | 0.00 | 92 | 1016.9 |
| 20260507231504 | 47 | 262 | 0.0 | 1.0 | 0.00 | 0.22 | 0.00 | 92 | 1016.9 |
| 20260507231003 | 47 | 255 | 0.0 | 1.0 | 0.00 | 0.22 | 0.00 | 92 | 1016.9 |
| 20260507230504 | 47 | 257 | 0.0 | 1.0 | 0.00 | 0.22 | 0.00 | 92 | 1016.7 |
| 20260507230004 | 47 | 257 | 0.0 | 1.0 | 0.00 | 0.22 | 0.00 | 92 | 1016.9 |
| 20260507225503 | 47 | 257 | 0.0 | 1.0 | 0.00 | 0.22 | 0.22 | 93 | 1016.6 |
| 20260507225004 | 47 | 270 | 1.0 | 1.0 | 0.00 | 0.22 | 0.22 | 93 | 1016.5 |
| 20260507224504 | 47 | 259 | 0.0 | 2.0 | 0.00 | 0.22 | 0.22 | 93 | 1016.6 |
| 20260507224003 | 47 | 265 | 1.0 | 2.0 | 0.00 | 0.22 | 0.22 | 93 | 1016.6 |
| 20260507223003 | 47 | 271 | 1.0 | 2.0 | 0.00 | 0.22 | 0.22 | 93 | 1016.5 |
| 20260507222503 | 47 | 277 | 0.0 | 2.0 | 0.00 | 0.22 | 0.22 | 93 | 1016.5 |
| 20260507222004 | 47 | 267 | 1.0 | 2.0 | 0.00 | 0.22 | 0.22 | 93 | 1016.6 |
| 20260507221503 | 47 | 255 | 0.0 | 3.0 | 0.00 | 0.22 | 0.22 | 93 | 1016.6 |
| 20260507221004 | 47 | 256 | 0.0 | 3.0 | 0.00 | 0.22 | 0.22 | 93 | 1016.3 |
| 20260507220504 | 47 | 271 | 0.0 | 2.0 | 0.00 | 0.22 | 0.22 | 93 | 1016.3 |
| 20260507220003 | 47 | 251 | 0.0 | 3.0 | 0.00 | 0.22 | 0.22 | 93 | 1016.3 |
| 20260507215004 | 47 | 263 | 0.0 | 1.0 | 0.00 | 0.22 | 0.22 | 93 | 1016.3 |
| 20260507214503 | 47 | 230 | 0.0 | 0.0 | 0.00 | 0.22 | 0.22 | 93 | 1016.3 |
| 20260507214003 | 47 | 238 | 0.0 | 0.0 | 0.00 | 0.22 | 0.22 | 93 | 1016.3 |
| 20260507213004 | 47 | 221 | 0.0 | 1.0 | 0.00 | 0.22 | 0.22 | 93 | 1016.3 |
| 20260507212504 | 47 | 236 | 0.0 | 1.0 | 0.00 | 0.22 | 0.22 | 92 | 1016.3 |
| 20260507212004 | 47 | 217 | 1.0 | 2.0 | 0.00 | 0.22 | 0.22 | 92 | 1016.3 |
| 20260507211503 | 47 | 217 | 1.0 | 3.0 | 0.00 | 0.22 | 0.22 | 92 | 1016.2 |
| 20260507210504 | 47 | 179 | 1.0 | 3.0 | 0.00 | 0.22 | 0.22 | 92 | 1016.2 |
| 20260507210004 | 47 | 192 | 0.0 | 2.0 | 0.00 | 0.22 | 0.22 | 92 | 1016.3 |
| 20260507205505 | 47 | 214 | 1.0 | 2.0 | 0.00 | 0.22 | 0.22 | 92 | 1016.0 |
| 20260507205003 | 47 | 203 | 0.0 | 2.0 | 0.00 | 0.22 | 0.22 | 92 | 1016.2 |
| 20260507204504 | 47 | 222 | 1.0 | 2.0 | 0.00 | 0.22 | 0.22 | 92 | 1016.2 |
| 20260507203504 | 47 | 195 | 0.0 | 1.0 | 0.01 | 0.22 | 0.22 | 92 | 1015.9 |
| 20260507203003 | 47 | 231 | 0.0 | 1.0 | 0.01 | 0.22 | 0.22 | 92 | 1015.9 |
| 20260507202503 | 47 | 222 | 0.0 | 1.0 | 0.01 | 0.22 | 0.22 | 92 | 1015.6 |
| 20260507202004 | 47 | 221 | 0.0 | 1.0 | 0.01 | 0.22 | 0.22 | 93 | 1015.7 |
| 20260507201505 | 47 | 223 | 0.0 | 1.0 | 0.01 | 0.22 | 0.22 | 93 | 1015.6 |
| 20260507201003 | 47 | 238 | 0.0 | 2.0 | 0.01 | 0.22 | 0.22 | 93 | 1015.6 |
| 20260507200503 | 47 | 221 | 1.0 | 3.0 | 0.01 | 0.22 | 0.22 | 93 | 1015.6 |
| 20260507200004 | 47 | 211 | 1.0 | 3.0 | 0.01 | 0.22 | 0.22 | 93 | 1015.3 |
| 20260507195504 | 47 | 222 | 0.0 | 2.0 | 0.01 | 0.22 | 0.22 | 93 | 1015.5 |
| 20260507195004 | 47 | 226 | 0.0 | 2.0 | 0.01 | 0.22 | 0.22 | 93 | 1015.6 |
| 20260507194504 | 47 | 245 | 0.0 | 2.0 | 0.01 | 0.22 | 0.22 | 93 | 1015.6 |
| 20260507194003 | 47 | 256 | 0.0 | 2.0 | 0.01 | 0.22 | 0.22 | 93 | 1015.5 |
| 20260507193503 | 47 | 259 | 0.0 | 3.0 | 0.00 | 0.21 | 0.21 | 94 | 1015.5 |
| 20260507193004 | 47 | 259 | 1.0 | 3.0 | 0.00 | 0.21 | 0.21 | 94 | 1015.3 |
| 20260507192504 | 47 | 267 | 1.0 | 3.0 | 0.00 | 0.21 | 0.21 | 93 | 1015.3 |
| 20260507192004 | 48 | 268 | 1.0 | 5.0 | 0.00 | 0.21 | 0.21 | 94 | 1015.3 |
| 20260507191503 | 48 | 306 | 2.0 | 5.0 | 0.00 | 0.21 | 0.21 | 94 | 1015.3 |
| 20260507191004 | 48 | 300 | 2.0 | 5.0 | 0.00 | 0.21 | 0.21 | 94 | 1015.3 |
| 20260507190504 | 48 | 277 | 1.0 | 3.0 | 0.00 | 0.21 | 0.21 | 94 | 1015.3 |
| 20260507190004 | 48 | 276 | 2.0 | 5.0 | 0.00 | 0.21 | 0.21 | 93 | 1015.3 |
| 20260507185503 | 48 | 296 | 2.0 | 7.0 | 0.00 | 0.21 | 0.21 | 93 | 1015.3 |
| 20260507185004 | 48 | 292 | 2.0 | 7.0 | 0.01 | 0.21 | 0.21 | 94 | 1015.3 |
| 20260507184004 | 48 | 303 | 1.0 | 6.0 | 0.01 | 0.21 | 0.21 | 93 | 1014.9 |
| 20260507183504 | 48 | 327 | 2.0 | 6.0 | 0.01 | 0.21 | 0.21 | 93 | 1015.2 |
| 20260507182503 | 48 | 320 | 2.0 | 6.0 | 0.02 | 0.21 | 0.21 | 93 | 1015.3 |
| 20260507182004 | 48 | 266 | 2.0 | 7.0 | 0.02 | 0.21 | 0.21 | 93 | 1014.9 |
| 20260507181003 | 48 | 271 | 3.0 | 8.0 | 0.02 | 0.21 | 0.21 | 92 | 1014.9 |
| 20260507180503 | 48 | 270 | 3.0 | 8.0 | 0.02 | 0.21 | 0.21 | 92 | 1014.9 |
| 20260507175504 | 49 | 294 | 2.0 | 8.0 | 0.02 | 0.21 | 0.21 | 92 | 1014.9 |
| 20260507174503 | 49 | 275 | 2.0 | 10.0 | 0.01 | 0.20 | 0.20 | 91 | 1014.9 |
| 20260507174003 | 49 | 308 | 3.0 | 12.0 | 0.01 | 0.20 | 0.20 | 90 | 1014.8 |
| 20260507173504 | 50 | 268 | 5.0 | 12.0 | 0.01 | 0.20 | 0.20 | 89 | 1014.7 |
| 20260507173004 | 50 | 248 | 3.0 | 7.0 | 0.00 | 0.19 | 0.19 | 89 | 1014.6 |
| 20260507172504 | 50 | 274 | 2.0 | 7.0 | 0.00 | 0.19 | 0.19 | 88 | 1014.6 |
| 20260507172003 | 50 | 240 | 3.0 | 8.0 | 0.00 | 0.19 | 0.19 | 88 | 1014.6 |
| 20260507171504 | 50 | 267 | 2.0 | 8.0 | 0.00 | 0.19 | 0.19 | 88 | 1014.6 |
| 20260507171005 | 49 | 253 | 3.0 | 8.0 | 0.00 | 0.19 | 0.19 | 88 | 1014.6 |
| 20260507170503 | 49 | 264 | 4.0 | 8.0 | 0.00 | 0.19 | 0.19 | 89 | 1014.8 |
| 20260507170005 | 50 | 259 | 3.0 | 6.0 | 0.00 | 0.19 | 0.19 | 90 | 1014.6 |
| 20260507165003 | 50 | 231 | 3.0 | 8.0 | 0.00 | 0.19 | 0.19 | 90 | 1014.6 |
| 20260507164504 | 50 | 235 | 4.0 | 8.0 | 0.00 | 0.19 | 0.19 | 91 | 1014.6 |
| 20260507164004 | 50 | 270 | 5.0 | 8.0 | 0.00 | 0.19 | 0.19 | 91 | 1014.6 |
| 20260507163503 | 50 | 280 | 3.0 | 12.0 | 0.00 | 0.19 | 0.19 | 91 | 1014.6 |
| 20260507163003 | 50 | 302 | 2.0 | 12.0 | 0.00 | 0.19 | 0.19 | 92 | 1014.6 |
| 20260507162503 | 50 | 259 | 2.0 | 12.0 | 0.00 | 0.19 | 0.19 | 92 | 1014.6 |
| 20260507162004 | 50 | 260 | 5.0 | 10.0 | 0.01 | 0.19 | 0.19 | 92 | 1014.6 |
| 20260507161503 | 50 | 297 | 2.0 | 9.0 | 0.03 | 0.19 | 0.19 | 93 | 1014.6 |
| 20260507161003 | 50 | 285 | 2.0 | 9.0 | 0.04 | 0.19 | 0.19 | 93 | 1014.2 |
| 20260507160504 | 50 | 254 | 5.0 | 9.0 | 0.06 | 0.19 | 0.19 | 93 | 1014.6 |
| 20260507160003 | 50 | 285 | 2.0 | 9.0 | 0.09 | 0.19 | 0.19 | 93 | 1014.2 |
| 20260507155503 | 50 | 237 | 3.0 | 9.0 | 0.11 | 0.19 | 0.19 | 93 | 1014.2 |
| 20260507154504 | 50 | 293 | 3.0 | 10.0 | 0.12 | 0.19 | 0.19 | 94 | 1014.3 |
| 20260507154004 | 50 | 293 | 3.0 | 10.0 | 0.12 | 0.19 | 0.19 | 93 | 1014.2 |
| 20260507153504 | 50 | 252 | 2.0 | 7.0 | 0.12 | 0.19 | 0.19 | 93 | 1014.5 |
| 20260507153004 | 50 | 280 | 1.0 | 7.0 | 0.13 | 0.19 | 0.19 | 93 | 1014.6 |
| 20260507152504 | 50 | 270 | 2.0 | 9.0 | 0.14 | 0.19 | 0.19 | 93 | 1014.2 |
| 20260507152003 | 50 | 264 | 3.0 | 10.0 | 0.13 | 0.18 | 0.18 | 93 | 1014.2 |
| 20260507151504 | 50 | 294 | 2.0 | 10.0 | 0.11 | 0.16 | 0.16 | 92 | 1014.5 |
| 20260507151004 | 50 | 258 | 3.0 | 10.0 | 0.10 | 0.15 | 0.15 | 92 | 1014.6 |
| 20260507150504 | 50 | 255 | 3.0 | 10.0 | 0.08 | 0.13 | 0.13 | 92 | 1014.5 |
| 20260507145504 | 51 | 283 | 4.0 | 12.0 | 0.03 | 0.08 | 0.08 | 91 | 1014.5 |
| 20260507145004 | 51 | 274 | 5.0 | 10.0 | 0.02 | 0.07 | 0.07 | 90 | 1014.2 |
| 20260507144505 | 52 | 262 | 3.0 | 7.0 | 0.02 | 0.07 | 0.07 | 90 | 1014.2 |
| 20260507144003 | 52 | 282 | 2.0 | 8.0 | 0.02 | 0.07 | 0.07 | 90 | 1014.2 |
| 20260507143503 | 51 | 277 | 2.0 | 8.0 | 0.02 | 0.07 | 0.07 | 89 | 1014.5 |
| 20260507143004 | 51 | 311 | 2.0 | 10.0 | 0.01 | 0.06 | 0.06 | 88 | 1014.2 |
| 20260507142504 | 52 | 312 | 3.0 | 10.0 | 0.01 | 0.05 | 0.05 | 87 | 1014.3 |
| 20260507141503 | 53 | 265 | 3.0 | 6.0 | 0.01 | 0.05 | 0.05 | 85 | 1014.6 |
| 20260507141004 | 53 | 261 | 2.0 | 10.0 | 0.01 | 0.05 | 0.05 | 85 | 1014.6 |
| 20260507140005 | 53 | 217 | 3.0 | 10.0 | 0.01 | 0.05 | 0.05 | 85 | 1014.3 |
| 20260507135504 | 53 | 257 | 2.0 | 7.0 | 0.01 | 0.05 | 0.05 | 86 | 1014.2 |
| 20260507134503 | 53 | 196 | 3.0 | 8.0 | 0.02 | 0.05 | 0.05 | 85 | 1014.6 |
| 20260507133003 | 52 | 263 | 3.0 | 9.0 | 0.04 | 0.05 | 0.05 | 85 | 1014.3 |
| 20260507131503 | 54 | 227 | 1.0 | 5.0 | 0.04 | 0.04 | 0.04 | 87 | 1014.5 |
| 20260507131004 | 55 | 265 | 2.0 | 5.0 | 0.04 | 0.04 | 0.04 | 87 | 1014.6 |
| 20260507130504 | 55 | 270 | 1.0 | 7.0 | 0.04 | 0.04 | 0.04 | 89 | 1014.6 |
| 20260507130004 | 53 | 272 | 1.0 | 7.0 | 0.04 | 0.04 | 0.04 | 89 | 1014.6 |
| 20260507125503 | 53 | 262 | 2.0 | 7.0 | 0.04 | 0.04 | 0.04 | 88 | 1014.6 |
| 20260507125004 | 51 | 275 | 2.0 | 14.0 | 0.04 | 0.04 | 0.04 | 87 | 1014.6 |
| 20260507124504 | 51 | 236 | 2.0 | 14.0 | 0.03 | 0.03 | 0.03 | 86 | 1014.6 |
| 20260507124003 | 52 | 228 | 5.0 | 14.0 | 0.01 | 0.01 | 0.01 | 85 | 1014.6 |
| 20260507123503 | 52 | 267 | 2.0 | 8.0 | 0.01 | 0.01 | 0.01 | 86 | 1014.6 |
| 20260507123004 | 52 | 329 | 2.0 | 8.0 | 0.01 | 0.01 | 0.01 | 86 | 1014.3 |
| 20260507122504 | 52 | 264 | 3.0 | 8.0 | 0.01 | 0.01 | 0.01 | 85 | 1014.6 |
| 20260507122004 | 52 | 249 | 2.0 | 6.0 | 0.00 | 0.00 | 0.00 | 84 | 1014.6 |
| 20260507121504 | 52 | 346 | 2.0 | 6.0 | 0.00 | 0.00 | 0.00 | 84 | 1014.2 |
| 20260507121004 | 52 | 298 | 2.0 | 6.0 | 0.00 | 0.00 | 0.00 | 83 | 1014.5 |
| 20260507120004 | 53 | 315 | 1.0 | 7.0 | 0.00 | 0.00 | 0.00 | 82 | 1014.6 |
| 20260507115504 | 53 | 320 | 2.0 | 7.0 | 0.00 | 0.00 | 0.00 | 81 | 1014.6 |
| 20260507115003 | 54 | 257 | 2.0 | 7.0 | 0.00 | 0.00 | 0.00 | 79 | 1014.6 |
| 20260507114503 | 53 | 238 | 2.0 | 8.0 | 0.00 | 0.00 | 0.00 | 78 | 1014.6 |
| 20260507114003 | 54 | 249 | 1.0 | 8.0 | 0.00 | 0.00 | 0.00 | 78 | 1014.6 |
| 20260507113503 | 53 | 240 | 2.0 | 8.0 | 0.00 | 0.00 | 0.00 | 77 | 1014.6 |
| 20260507113004 | 54 | 261 | 3.0 | 9.0 | 0.00 | 0.00 | 0.00 | 76 | 1014.6 |
| 20260507112504 | 54 | 238 | 0.0 | 9.0 | 0.00 | 0.00 | 0.00 | 77 | 1014.6 |
| 20260507111504 | 54 | 262 | 2.0 | 8.0 | 0.00 | 0.00 | 0.00 | 73 | 1014.5 |
| 20260507110004 | 55 | 128 | 2.0 | 10.0 | 0.00 | 0.00 | 0.00 | 72 | 1014.6 |
| 20260507105503 | 55 | 265 | 2.0 | 10.0 | 0.00 | 0.00 | 0.00 | 73 | 1014.6 |
| 20260507105004 | 54 | 262 | 2.0 | 10.0 | 0.00 | 0.00 | 0.00 | 74 | 1014.6 |
| 20260507104504 | 54 | 199 | 2.0 | 10.0 | 0.00 | 0.00 | 0.00 | 75 | 1014.6 |
| 20260507104003 | 54 | 190 | 3.0 | 9.0 | 0.00 | 0.00 | 0.00 | 75 | 1014.6 |
| 20260507103503 | 54 | 210 | 2.0 | 10.0 | 0.00 | 0.00 | 0.00 | 73 | 1014.6 |
| 20260507103004 | 54 | 147 | 3.0 | 10.0 | 0.00 | 0.00 | 0.00 | 72 | 1014.6 |
| 20260507102504 | 55 | 165 | 3.0 | 9.0 | 0.00 | 0.00 | 0.00 | 72 | 1014.3 |
| 20260507102003 | 55 | 240 | 3.0 | 9.0 | 0.00 | 0.00 | 0.00 | 72 | 1014.6 |
| 20260507101504 | 54 | 209 | 2.0 | 8.0 | 0.00 | 0.00 | 0.00 | 72 | 1014.2 |
| 20260507101004 | 55 | 139 | 5.0 | 9.0 | 0.00 | 0.00 | 0.00 | 69 | 1014.3 |
| 20260507100504 | 55 | 224 | 3.0 | 9.0 | 0.00 | 0.00 | 0.00 | 71 | 1014.2 |
| 20260507100004 | 54 | 236 | 3.0 | 10.0 | 0.00 | 0.00 | 0.00 | 72 | 1014.2 |
| 20260507095504 | 54 | 191 | 2.0 | 12.0 | 0.00 | 0.00 | 0.00 | 71 | 1014.2 |
| 20260507095004 | 54 | 188 | 3.0 | 13.0 | 0.00 | 0.00 | 0.00 | 70 | 1014.1 |
| 20260507094504 | 54 | 179 | 5.0 | 13.0 | 0.00 | 0.00 | 0.00 | 70 | 1014.0 |
| 20260507094003 | 54 | 244 | 2.0 | 8.0 | 0.00 | 0.00 | 0.00 | 70 | 1014.2 |
| 20260507093504 | 55 | 228 | 2.0 | 10.0 | 0.00 | 0.00 | 0.00 | 70 | 1014.2 |
| 20260507093004 | 54 | 254 | 1.0 | 10.0 | 0.00 | 0.00 | 0.00 | 72 | 1014.2 |
| 20260507092004 | 53 | 185 | 3.0 | 9.0 | 0.00 | 0.00 | 0.00 | 72 | 1014.5 |
| 20260507091503 | 53 | 153 | 3.0 | 9.0 | 0.00 | 0.00 | 0.00 | 74 | 1014.2 |
| 20260507091003 | 53 | 237 | 3.0 | 9.0 | 0.00 | 0.00 | 0.00 | 76 | 1014.5 |
| 20260507090504 | 53 | 183 | 5.0 | 9.0 | 0.00 | 0.00 | 0.00 | 76 | 1014.2 |
| 20260507090004 | 54 | 218 | 3.0 | 9.0 | 0.00 | 0.00 | 0.00 | 76 | 1014.2 |
| 20260507085503 | 53 | 172 | 3.0 | 8.0 | 0.00 | 0.00 | 0.00 | 78 | 1014.2 |
| 20260507085003 | 51 | 188 | 2.0 | 8.0 | 0.00 | 0.00 | 0.00 | 80 | 1014.2 |
| 20260507084503 | 51 | 198 | 4.0 | 8.0 | 0.00 | 0.00 | 0.00 | 81 | 1014.2 |
| 20260507084003 | 50 | 218 | 1.0 | 6.0 | 0.00 | 0.00 | 0.00 | 83 | 1014.2 |
| 20260507083504 | 50 | 201 | 3.0 | 6.0 | 0.00 | 0.00 | 0.00 | 83 | 1014.2 |
| 20260507083004 | 50 | 201 | 3.0 | 6.0 | 0.00 | 0.00 | 0.00 | 83 | 1014.2 |
| 20260507082503 | 50 | 162 | 2.0 | 6.0 | 0.00 | 0.00 | 0.00 | 84 | 1014.6 |
| 20260507082004 | 50 | 192 | 2.0 | 5.0 | 0.00 | 0.00 | 0.00 | 84 | 1014.6 |
| 20260507081504 | 50 | 214 | 1.0 | 5.0 | 0.00 | 0.00 | 0.00 | 85 | 1014.6 |
| 20260507081003 | 50 | 171 | 1.0 | 5.0 | 0.00 | 0.00 | 0.00 | 85 | 1014.6 |
| 20260507080504 | 50 | 193 | 0.0 | 6.0 | 0.00 | 0.00 | 0.00 | 86 | 1014.6 |
| 20260507080004 | 49 | 232 | 1.0 | 6.0 | 0.00 | 0.00 | 0.00 | 85 | 1014.6 |
| 20260507075504 | 49 | 226 | 2.0 | 6.0 | 0.00 | 0.00 | 0.00 | 85 | 1014.6 |
| 20260507074004 | 49 | 283 | 3.0 | 5.0 | 0.00 | 0.00 | 0.00 | 82 | 1014.6 |
| 20260507073504 | 49 | 173 | 1.0 | 5.0 | 0.00 | 0.00 | 0.00 | 82 | 1014.6 |
| 20260507073004 | 49 | 213 | 1.0 | 3.0 | 0.00 | 0.00 | 0.00 | 82 | 1014.6 |
| 20260507072503 | 49 | 172 | 1.0 | 3.0 | 0.00 | 0.00 | 0.00 | 80 | 1014.6 |
| 20260507071504 | 49 | 203 | 1.0 | 5.0 | 0.00 | 0.00 | 0.00 | 81 | 1014.6 |
| 20260507071004 | 49 | 194 | 1.0 | 6.0 | 0.00 | 0.00 | 0.00 | 81 | 1014.6 |
| 20260507070007 | 49 | 189 | 3.0 | 6.0 | 0.00 | 0.00 | 0.00 | 82 | 1014.6 |
| 20260507065504 | 48 | 205 | 1.0 | 6.0 | 0.00 | 0.00 | 0.00 | 82 | 1014.3 |
| 20260507065003 | 47 | 172 | 3.0 | 6.0 | 0.00 | 0.00 | 0.00 | 83 | 1014.3 |
| 20260507064503 | 47 | 197 | 2.0 | 6.0 | 0.00 | 0.00 | 0.00 | 83 | 1014.2 |
| 20260507064003 | 46 | 202 | 2.0 | 5.0 | 0.00 | 0.00 | 0.00 | 84 | 1014.2 |
| 20260507063503 | 46 | 186 | 1.0 | 7.0 | 0.00 | 0.00 | 0.00 | 84 | 1014.2 |
| 20260507063004 | 46 | 176 | 2.0 | 7.0 | 0.00 | 0.00 | 0.00 | 84 | 1014.2 |
| 20260507062004 | 46 | 174 | 2.0 | 3.0 | 0.00 | 0.00 | 0.00 | 84 | 1014.3 |
| 20260507061503 | 45 | 185 | 2.0 | 3.0 | 0.00 | 0.00 | 0.00 | 84 | 1014.5 |
| 20260507061004 | 45 | 204 | 1.0 | 5.0 | 0.00 | 0.00 | 0.00 | 84 | 1014.6 |
| 20260507060503 | 45 | 162 | 1.0 | 5.0 | 0.00 | 0.00 | 0.00 | 84 | 1014.6 |
| 20260507060004 | 45 | 205 | 1.0 | 5.0 | 0.00 | 0.00 | 0.00 | 83 | 1014.6 |
| 20260507055503 | 45 | 210 | 2.0 | 6.0 | 0.00 | 0.00 | 0.00 | 83 | 1014.5 |
| 20260507055004 | 45 | 176 | 2.0 | 6.0 | 0.00 | 0.00 | 0.00 | 83 | 1014.6 |
| 20260507054504 | 45 | 176 | 1.0 | 6.0 | 0.00 | 0.00 | 0.00 | 83 | 1014.2 |
| 20260507054004 | 45 | 194 | 2.0 | 5.0 | 0.00 | 0.00 | 0.00 | 83 | 1014.6 |
| 20260507053503 | 44 | 184 | 3.0 | 5.0 | 0.00 | 0.00 | 0.00 | 84 | 1014.6 |
| 20260507052504 | 43 | 191 | 2.0 | 5.0 | 0.00 | 0.00 | 0.00 | 84 | 1014.5 |
| 20260507052004 | 43 | 223 | 2.0 | 5.0 | 0.00 | 0.00 | 0.00 | 84 | 1014.3 |
| 20260507050503 | 42 | 159 | 1.0 | 3.0 | 0.00 | 0.00 | 0.00 | 85 | 1014.6 |
| 20260507045503 | 42 | 202 | 0.0 | 2.0 | 0.00 | 0.00 | 0.00 | 86 | 1014.6 |
| 20260507045004 | 42 | 222 | 0.0 | 1.0 | 0.00 | 0.00 | 0.00 | 85 | 1014.3 |
| 20260507044503 | 42 | 229 | 0.0 | 2.0 | 0.00 | 0.00 | 0.00 | 85 | 1014.6 |
| 20260507043504 | 42 | 206 | 0.0 | 2.0 | 0.00 | 0.00 | 0.00 | 85 | 1014.6 |